EW5380 Weather Reports


time (UTC)temp
C
wind
direction
speed
KPH
gust
KPH
rain 1hr
cm
rain 24hr
cm
rain mn
cm
humidity
%
barometer
mb
20260509032205 11 238 0.0 0.0 0.00 0.00 0.00 86 1015.6
20260509031702 11 238 0.0 0.0 0.00 0.00 0.00 85 1015.6
20260509031200 11 238 0.0 0.0 0.00 0.00 0.00 85 1015.6
20260509030658 11 238 0.0 0.0 0.00 0.00 0.00 85 1015.6
20260509030154 11 238 0.0 0.0 0.00 0.00 0.00 84 1015.6
20260509025650 11 238 0.0 0.0 0.00 0.00 0.00 84 1015.6
20260509025147 11 238 0.0 0.0 0.00 0.00 0.00 84 1015.6
20260509024642 11 238 0.0 0.0 0.00 0.00 0.00 84 1015.6
20260509024138 11 238 0.0 0.0 0.00 0.00 0.00 84 1015.6
20260509023636 11 240 0.0 0.0 0.00 0.00 0.00 83 1015.2
20260509023132 11 240 0.0 0.0 0.00 0.00 0.00 83 1015.6
20260509022629 11 240 0.0 0.0 0.00 0.00 0.00 82 1015.6
20260509022127 12 240 0.0 0.0 0.00 0.00 0.00 83 1015.6
20260509021624 12 240 0.0 0.0 0.00 0.00 0.00 82 1015.6
20260509021120 12 271 0.0 0.0 0.00 0.00 0.00 82 1015.6
20260509020619 12 270 0.0 0.0 0.00 0.00 0.00 82 1015.6
20260509020115 12 271 0.0 0.0 0.00 0.00 0.00 81 1015.6
20260509015615 12 271 0.0 0.0 0.00 0.00 0.00 81 1015.6
20260509015111 12 271 0.0 0.0 0.00 0.00 0.00 82 1015.6
20260509014608 12 271 0.0 0.0 0.00 0.00 0.00 81 1015.6
20260509014104 12 271 0.0 0.0 0.00 0.00 0.00 80 1015.6
20260509013601 12 283 0.0 0.0 0.00 0.00 0.00 80 1015.2
20260509013057 12 283 0.0 0.0 0.00 0.00 0.00 80 1015.2
20260509012554 12 283 0.0 0.0 0.00 0.00 0.00 79 1015.2
20260509012050 12 283 0.0 0.0 0.00 0.00 0.00 79 1015.2
20260509011548 13 284 0.0 0.0 0.00 0.00 0.00 80 1015.6
20260509011045 13 284 0.0 0.0 0.00 0.00 0.00 77 1015.2
20260509010543 13 178 0.0 0.0 0.00 0.00 0.00 78 1015.2
20260509010040 13 178 0.0 0.0 0.00 0.00 0.00 78 1015.2
20260509005538 13 178 0.0 0.0 0.00 0.00 0.00 77 1015.2
20260509005038 13 178 0.0 0.0 0.00 0.00 0.00 76 1015.2
20260509004535 13 178 0.0 0.0 0.00 0.00 0.00 75 1014.9
20260509004032 13 178 0.0 0.0 0.00 0.00 0.00 75 1014.9
20260509003530 14 178 0.0 0.0 0.00 0.00 0.00 75 1014.9
20260509003027 14 178 0.0 0.0 0.00 0.00 0.00 75 1014.9
20260509002525 14 178 0.0 0.0 0.00 0.00 0.00 74 1014.9
20260509002022 15 177 0.0 0.0 0.00 0.00 0.00 74 1014.9
20260509001519 15 177 0.0 0.0 0.00 0.00 0.00 72 1014.9
20260509001015 15 177 0.0 0.0 0.00 0.00 0.00 74 1014.9
20260509000514 15 177 0.0 0.0 0.00 0.00 0.00 74 1014.9
20260509000009 15 177 0.0 0.0 0.00 0.00 0.00 73 1014.9
20260508235508 15 177 0.0 0.0 0.00 0.00 0.00 74 1014.9
20260508235003 15 177 0.0 0.0 0.00 0.00 0.00 74 1014.4
20260508234500 15 177 0.0 0.0 0.00 0.00 0.00 73 1014.4
20260508233958 15 177 0.0 0.0 0.00 0.00 0.00 73 1014.9
20260508233457 15 176 0.0 1.6 0.00 0.00 0.00 75 1014.9
20260508232953 16 174 1.6 3.2 0.00 0.00 0.00 73 1014.9
20260508232450 16 156 0.0 6.4 0.00 0.00 0.00 72 1014.4
20260508231948 16 282 0.0 4.8 0.00 0.00 0.00 71 1014.4
20260508231445 16 250 0.0 3.2 0.00 0.00 0.00 70 1014.4
20260508230941 16 250 0.0 3.2 0.00 0.00 0.00 68 1014.4
20260508230438 16 250 0.0 3.2 0.00 0.00 0.00 68 1014.4
20260508225935 16 251 0.0 3.2 0.00 0.00 0.00 67 1014.9
20260508225432 16 214 0.0 1.6 0.00 0.00 0.00 67 1014.4
20260508224929 16 214 0.0 1.6 0.00 0.00 0.00 69 1014.4
20260508224427 17 219 0.0 0.0 0.00 0.00 0.00 69 1014.4
20260508223924 17 292 0.0 0.0 0.00 0.00 0.00 67 1014.4
20260508223422 17 161 0.0 0.0 0.00 0.00 0.00 70 1014.9
20260508222919 17 175 0.0 0.0 0.00 0.00 0.00 69 1014.9
20260508222416 17 199 0.0 0.0 0.00 0.00 0.00 66 1014.9
20260508221913 17 297 0.0 0.0 0.00 0.00 0.00 64 1014.4
20260508221408 17 98 0.0 6.4 0.00 0.00 0.00 68 1014.4
20260508220905 17 96 1.6 6.4 0.00 0.00 0.00 66 1014.4
20260508220401 17 188 0.0 3.2 0.00 0.00 0.00 68 1014.4
20260508215858 17 191 0.0 6.4 0.00 0.00 0.00 65 1014.4
20260508215355 17 252 0.0 3.2 0.00 0.00 0.00 65 1014.4
20260508214851 17 287 0.0 6.4 0.00 0.00 0.00 65 1014.4
20260508214349 17 248 0.0 6.4 0.00 0.00 0.00 66 1014.9
20260508213845 17 228 0.0 3.2 0.00 0.00 0.00 64 1014.9
20260508213342 17 103 1.6 3.2 0.00 0.00 0.00 67 1014.9
20260508212838 17 178 1.6 3.2 0.00 0.00 0.00 64 1014.4
20260508212335 17 130 1.6 3.2 0.00 0.00 0.00 67 1014.4
20260508211825 17 153 1.6 6.4 0.00 0.00 0.00 69 1014.4
20260508211320 17 355 1.6 6.4 0.00 0.00 0.00 64 1014.4
20260508210819 17 114 1.6 6.4 0.00 0.00 0.00 65 1014.1
20260508210315 17 117 1.6 6.4 0.00 0.00 0.00 64 1014.4
20260508205812 17 131 1.6 8.0 0.00 0.00 0.00 67 1014.4
20260508205308 18 163 1.6 8.0 0.00 0.00 0.00 66 1014.4
20260508204804 18 118 0.0 6.4 0.00 0.00 0.00 67 1014.4
20260508204301 18 288 0.0 1.6 0.00 0.00 0.00 64 1014.4
20260508203758 18 292 0.0 1.6 0.00 0.00 0.00 64 1014.4
20260508203254 18 292 0.0 1.6 0.00 0.00 0.00 62 1014.9
20260508202749 18 112 0.0 0.0 0.00 0.00 0.00 61 1014.9
20260508202247 18 112 0.0 0.0 0.00 0.00 0.00 61 1014.9
20260508201744 18 319 0.0 0.0 0.00 0.00 0.00 61 1014.4
20260508201240 18 298 0.0 0.0 0.00 0.00 0.00 61 1014.4
20260508200737 18 205 0.0 0.0 0.00 0.00 0.00 62 1014.9
20260508200233 17 271 0.0 0.0 0.00 0.00 0.00 57 1014.9
20260508195730 17 293 0.0 0.0 0.00 0.00 0.00 62 1015.2
20260508195226 17 111 0.0 3.2 0.00 0.00 0.00 63 1015.2
20260508194723 17 313 0.0 3.2 0.00 0.00 0.00 65 1015.2
20260508194220 17 119 0.0 6.4 0.00 0.00 0.00 63 1015.2
20260508193717 17 290 1.6 6.4 0.00 0.00 0.00 63 1015.6
20260508193214 17 117 1.6 8.0 0.00 0.00 0.00 62 1015.6
20260508192710 17 133 3.2 8.0 0.00 0.00 0.00 67 1015.6
20260508192207 17 120 1.6 8.0 0.00 0.00 0.00 63 1015.6
20260508191705 17 123 1.6 6.4 0.00 0.00 0.00 64 1015.6
20260508191155 17 123 1.6 6.4 0.00 0.00 0.00 68 1015.6
20260508190653 17 101 0.0 6.4 0.00 0.00 0.00 63 1015.6
20260508190149 18 126 1.6 3.2 0.00 0.00 0.00 64 1015.9
20260508185646 18 103 1.6 9.7 0.00 0.00 0.00 62 1016.3
20260508185144 18 119 1.6 8.0 0.00 0.00 0.00 59 1015.9
20260508184641 18 306 1.6 8.0 0.00 0.00 0.00 60 1015.9
20260508184138 18 295 1.6 6.4 0.00 0.00 0.00 60 1016.3
20260508183635 17 119 1.6 6.4 0.00 0.00 0.00 62 1016.3
20260508183130 17 288 0.0 6.4 0.00 0.00 0.00 59 1016.3
20260508182627 17 75 1.6 6.4 0.00 0.00 0.00 59 1016.3
20260508182123 18 309 0.0 6.4 0.00 0.00 0.00 55 1016.3
20260508181619 18 117 0.0 3.2 0.00 0.00 0.00 61 1016.7
20260508181117 17 117 1.6 3.2 0.00 0.00 0.00 61 1016.7
20260508180613 17 130 1.6 6.4 0.00 0.00 0.00 59 1016.3
20260508180110 17 0 1.6 6.4 0.00 0.00 0.00 58 1016.7
20260508175607 17 301 1.6 11.3 0.00 0.00 0.00 58 1016.7
20260508175104 17 74 1.6 11.3 0.00 0.00 0.00 54 1016.7
20260508174601 17 313 1.6 6.4 0.00 0.00 0.00 58 1016.7
20260508174058 17 320 1.6 6.4 0.00 0.00 0.00 56 1016.7
20260508173555 17 325 1.6 9.7 0.00 0.00 0.00 56 1016.7
20260508173051 17 329 1.6 9.7 0.00 0.00 0.00 54 1016.7
20260508172548 17 338 0.0 3.2 0.00 0.00 0.00 52 1016.7
20260508172045 16 289 1.6 8.0 0.00 0.00 0.00 53 1017.0
20260508171541 17 292 1.6 8.0 0.00 0.00 0.00 56 1017.0
20260508171038 16 33 1.6 6.4 0.00 0.00 0.00 53 1017.0
20260508170535 16 314 1.6 6.4 0.00 0.00 0.00 57 1017.0
20260508170032 16 350 1.6 6.4 0.00 0.00 0.00 57 1017.0
20260508165530 16 321 0.0 6.4 0.00 0.00 0.00 59 1017.3
20260508165026 16 271 1.6 9.7 0.00 0.00 0.00 57 1017.3
20260508164523 16 304 1.6 9.7 0.00 0.00 0.00 60 1017.3
20260508164019 16 307 1.6 6.4 0.00 0.00 0.00 57 1017.3
20260508163517 16 132 1.6 6.4 0.00 0.00 0.00 58 1017.8
20260508163013 15 274 1.6 6.4 0.00 0.00 0.00 59 1017.8
20260508162510 15 309 1.6 9.7 0.00 0.00 0.00 58 1017.8
20260508162008 15 309 1.6 9.7 0.00 0.00 0.00 57 1017.8
20260508161504 15 59 1.6 8.0 0.00 0.00 0.00 58 1017.8
20260508161001 15 157 1.6 6.4 0.00 0.00 0.00 58 1017.8
20260508160500 15 344 1.6 6.4 0.00 0.00 0.00 56 1018.1
20260508155956 15 79 1.6 6.4 0.00 0.00 0.00 55 1018.1
20260508155454 15 294 1.6 6.4 0.00 0.00 0.00 61 1018.1
20260508154950 15 348 1.6 9.7 0.00 0.00 0.00 64 1018.1
20260508154448 15 136 1.6 9.7 0.00 0.00 0.00 58 1018.1
20260508153944 15 324 1.6 8.0 0.00 0.00 0.00 61 1018.5
20260508153441 15 293 1.6 9.7 0.00 0.00 0.00 63 1018.5
20260508152938 15 297 1.6 9.7 0.00 0.00 0.00 59 1018.5
20260508152434 14 310 0.0 6.4 0.00 0.00 0.00 63 1018.5
20260508151930 14 331 0.0 0.0 0.00 0.00 0.00 63 1018.5
20260508151427 14 330 0.0 3.2 0.00 0.00 0.00 63 1018.5
20260508150923 14 300 1.6 9.7 0.00 0.00 0.00 68 1018.5
20260508150421 13 300 1.6 9.7 0.00 0.00 0.00 67 1018.5
20260508145916 13 291 0.0 6.4 0.00 0.00 0.00 71 1018.5
20260508145413 13 295 1.6 6.4 0.00 0.00 0.00 70 1018.5
20260508144910 13 275 1.6 8.0 0.00 0.00 0.00 68 1018.5
20260508144408 12 284 1.6 8.0 0.00 0.00 0.00 69 1018.5
20260508143905 12 316 0.0 3.2 0.00 0.00 0.00 71 1018.5
20260508143402 12 297 0.0 0.0 0.00 0.00 0.00 72 1018.5
20260508142858 12 284 0.0 0.0 0.00 0.00 0.00 75 1018.5
20260508142355 12 149 0.0 0.0 0.00 0.00 0.00 75 1018.5
20260508141852 11 149 0.0 0.0 0.00 0.00 0.00 74 1018.5
20260508141349 11 296 0.0 0.0 0.00 0.00 0.00 77 1018.5
20260508140847 11 306 0.0 0.0 0.00 0.00 0.00 77 1018.5
20260508140343 11 306 0.0 0.0 0.00 0.00 0.00 78 1018.8
20260508135839 11 305 0.0 0.0 0.00 0.00 0.00 78 1018.8
20260508135336 11 304 0.0 0.0 0.00 0.00 0.00 81 1018.8
20260508134832 11 296 0.0 0.0 0.00 0.00 0.00 79 1018.8
20260508134329 11 296 0.0 0.0 0.00 0.00 0.00 79 1018.8
20260508133825 11 296 0.0 0.0 0.00 0.00 0.00 79 1018.8
20260508133324 11 294 0.0 0.0 0.00 0.00 0.00 79 1018.8
20260508132820 11 294 0.0 0.0 0.00 0.00 0.00 81 1018.8
20260508132317 11 270 0.0 0.0 0.00 0.00 0.00 81 1018.8
20260508131813 11 268 0.0 0.0 0.00 0.00 0.00 82 1018.8
20260508131309 10 268 0.0 0.0 0.00 0.00 0.00 83 1018.8
20260508130807 10 265 0.0 0.0 0.00 0.00 0.00 83 1018.5
20260508130304 10 254 0.0 0.0 0.00 0.00 0.00 83 1018.5
20260508125759 10 254 0.0 0.0 0.00 0.00 0.00 86 1018.5
20260508125256 9 254 0.0 0.0 0.00 0.00 0.00 85 1018.5
20260508124754 9 257 0.0 0.0 0.00 0.00 0.00 87 1018.5
20260508124250 8 257 0.0 0.0 0.00 0.00 0.00 92 1018.5
20260508123749 8 257 0.0 0.0 0.00 0.00 0.00 92 1018.5
20260508123247 8 256 0.0 0.0 0.00 0.00 0.00 95 1018.5
20260508122743 7 256 0.0 0.0 0.00 0.00 0.00 96 1018.5
20260508122240 7 256 0.0 0.0 0.00 0.00 0.00 97 1018.5
20260508121737 7 256 0.0 0.0 0.00 0.00 0.00 98 1018.5
20260508121236 6 256 0.0 0.0 0.00 0.00 0.00 98 1018.5
20260508120732 6 256 0.0 0.0 0.00 0.00 0.00 97 1018.5
20260508120231 6 236 0.0 0.0 0.00 0.00 0.00 98 1018.1
20260508115728 6 235 0.0 0.0 0.00 0.00 0.00 98 1018.1
20260508115226 6 235 0.0 0.0 0.00 0.00 0.00 98 1018.1
20260508114722 6 235 0.0 0.0 0.00 0.00 0.00 98 1018.1
20260508114218 6 235 0.0 0.0 0.00 0.00 0.00 97 1018.1
20260508113715 6 235 0.0 0.0 0.00 0.00 0.00 97 1017.8
20260508113214 6 235 0.0 0.0 0.00 0.00 0.00 97 1017.8
20260508112709 6 235 0.0 0.0 0.00 0.00 0.00 97 1017.8
20260508112206 6 235 0.0 0.0 0.00 0.00 0.00 97 1017.3
20260508111703 6 235 0.0 0.0 0.00 0.00 0.00 97 1017.3
20260508111200 6 235 0.0 0.0 0.00 0.00 0.00 97 1017.3
20260508110657 6 235 0.0 0.0 0.00 0.00 0.00 97 1017.3
20260508110154 6 235 0.0 0.0 0.00 0.00 0.00 97 1017.3
20260508105654 6 235 0.0 0.0 0.00 0.00 0.00 97 1017.3
20260508105151 6 235 0.0 0.0 0.00 0.00 0.00 97 1017.0
20260508104649 6 235 0.0 0.0 0.00 0.00 0.00 97 1017.0
20260508104145 6 235 0.0 0.0 0.00 0.00 0.00 97 1017.0
20260508103643 6 235 0.0 0.0 0.00 0.00 0.00 97 1017.0
20260508103140 6 235 0.0 0.0 0.00 0.00 0.00 97 1016.7
20260508102637 6 235 0.0 0.0 0.00 0.00 0.00 97 1016.7
20260508102135 6 235 0.0 0.0 0.00 0.00 0.00 97 1016.7
20260508101632 6 235 0.0 0.0 0.00 0.00 0.00 97 1016.7
20260508101129 6 235 0.0 0.0 0.00 0.00 0.00 97 1016.7
20260508100626 6 235 0.0 0.0 0.00 0.00 0.00 97 1016.7
20260508100125 6 235 0.0 0.0 0.00 0.00 0.00 97 1016.3
20260508095621 6 235 0.0 0.0 0.00 0.00 0.00 97 1016.3
20260508095119 6 235 0.0 0.0 0.00 0.00 0.00 97 1016.3
20260508094615 6 235 0.0 0.0 0.00 0.00 0.00 97 1016.3
20260508094111 6 235 0.0 0.0 0.00 0.00 0.00 97 1016.3
20260508093609 6 235 0.0 0.0 0.00 0.00 0.00 96 1016.3
20260508093107 6 235 0.0 0.0 0.00 0.00 0.00 96 1016.3
20260508092603 6 235 0.0 0.0 0.00 0.00 0.00 96 1016.3
20260508092102 6 235 0.0 0.0 0.00 0.00 0.00 96 1016.3
20260508091559 6 235 0.0 0.0 0.00 0.00 0.00 96 1016.3
20260508091055 6 235 0.0 0.0 0.00 0.00 0.00 96 1015.9
20260508090554 6 235 0.0 0.0 0.00 0.00 0.00 95 1015.9
20260508090050 6 235 0.0 0.0 0.00 0.00 0.00 95 1016.3
20260508085547 6 235 0.0 0.0 0.00 0.00 0.00 95 1016.3
20260508085044 6 235 0.0 0.0 0.00 0.00 0.00 95 1016.3
20260508084541 6 235 0.0 0.0 0.00 0.00 0.00 95 1015.9
20260508084038 6 235 0.0 0.0 0.00 0.00 0.00 95 1015.9
20260508083535 7 235 0.0 0.0 0.00 0.00 0.00 95 1015.9
20260508083032 7 237 0.0 0.0 0.00 0.00 0.00 95 1015.9
20260508082528 7 133 0.0 0.0 0.00 0.00 0.00 94 1015.6
20260508082025 7 132 0.0 0.0 0.00 0.00 0.00 94 1015.6
20260508081523 7 132 0.0 0.0 0.00 0.00 0.00 94 1015.6
20260508081018 7 133 0.0 0.0 0.00 0.00 0.00 94 1015.6
20260508080516 7 133 0.0 0.0 0.00 0.00 0.00 94 1015.6
20260508080014 7 132 0.0 0.0 0.00 0.00 0.00 94 1015.6
20260508075510 7 132 0.0 0.0 0.00 0.00 0.00 94 1015.6
20260508075008 7 132 0.0 0.0 0.00 0.00 0.00 94 1015.6
20260508074506 7 129 0.0 0.0 0.00 0.00 0.00 94 1015.6
20260508074002 7 129 0.0 0.0 0.00 0.00 0.00 93 1015.6
20260508073459 7 128 0.0 0.0 0.00 0.00 0.00 92 1015.6
20260508072957 7 126 0.0 0.0 0.00 0.00 0.00 92 1015.6
20260508072452 8 126 0.0 0.0 0.00 0.00 0.00 92 1015.2
20260508071949 8 126 0.0 0.0 0.00 0.00 0.00 91 1015.2
20260508071448 8 126 0.0 3.2 0.00 0.00 0.00 91 1015.2
20260508070945 8 126 0.0 3.2 0.00 0.00 0.00 90 1015.2
20260508070443 8 126 0.0 3.2 0.00 0.00 0.00 90 1015.2
20260508065941 8 150 1.6 6.4 0.00 0.00 0.00 89 1015.2
20260508065439 8 150 1.6 6.4 0.00 0.00 0.00 88 1015.2
20260508064937 9 169 1.6 8.0 0.00 0.00 0.00 87 1015.2
20260508064434 9 142 1.6 8.0 0.00 0.00 0.00 86 1014.9
20260508063931 9 139 1.6 6.4 0.00 0.00 0.00 85 1015.2
20260508063428 9 155 1.6 6.4 0.00 0.00 0.00 85 1015.2
20260508062925 10 153 0.0 6.4 0.00 0.00 0.00 85 1015.2
20260508062423 10 195 1.6 8.0 0.00 0.00 0.00 84 1015.2
20260508061920 10 284 1.6 8.0 0.00 0.00 0.00 83 1015.2
20260508061418 10 315 1.6 6.4 0.00 0.00 0.00 83 1015.2
20260508060913 10 135 3.2 12.9 0.00 0.00 0.00 83 1015.2
20260508060411 10 289 1.6 12.9 0.00 0.00 0.00 84 1015.2
20260508055908 10 172 0.0 6.4 0.00 0.00 0.00 84 1015.2
20260508055405 10 236 0.0 6.4 0.00 0.00 0.00 84 1015.2
20260508054901 10 342 1.6 9.7 0.00 0.00 0.00 84 1015.2
20260508054358 10 263 1.6 9.7 0.00 0.00 0.00 85 1015.2
20260508053855 10 229 0.0 8.0 0.00 0.00 0.00 85 1015.2
20260508053352 10 150 1.6 8.0 0.00 0.00 0.00 84 1015.2
20260508052850 10 150 3.2 9.7 0.00 0.00 0.00 83 1015.2
20260508052348 10 266 3.2 12.9 0.00 0.00 0.00 83 1015.2
20260508051843 10 248 3.2 11.3 0.00 0.00 0.00 84 1015.2
20260508051339 10 42 1.6 11.3 0.00 0.00 0.00 84 1015.2
20260508050835 10 102 1.6 8.0 0.00 0.00 0.00 84 1015.2
20260508050333 10 313 1.6 8.0 0.00 0.00 0.00 84 1015.2
20260508045828 10 275 1.6 14.5 0.00 0.00 0.00 85 1015.2
20260508045326 10 216 1.6 14.5 0.00 0.00 0.00 85 1015.2
20260508044824 10 282 1.6 8.0 0.00 0.00 0.00 85 1014.9
20260508044320 10 144 0.0 6.4 0.00 0.00 0.00 86 1015.2
20260508043816 9 172 1.6 4.8 0.00 0.00 0.00 86 1014.9
20260508043314 9 236 1.6 8.0 0.00 0.00 0.00 86 1014.9
20260508042810 9 271 0.0 8.0 0.00 0.00 0.00 86 1014.9
20260508042308 9 155 0.0 6.4 0.00 0.00 0.00 87 1014.9
20260508041804 9 159 0.0 6.4 0.00 0.00 0.00 86 1014.9
20260508041301 10 153 1.6 6.4 0.00 0.00 0.00 86 1014.9
20260508040757 10 148 0.0 6.4 0.00 0.00 0.00 85 1014.9
20260508040255 10 215 0.0 1.6 0.00 0.00 0.00 86 1014.9
20260508035752 10 215 0.0 1.6 0.00 0.23 0.23 85 1014.9
20260508035249 10 249 0.0 3.2 0.00 0.23 0.23 84 1014.9
20260508034745 10 249 0.0 3.2 0.00 0.23 0.23 84 1014.9
20260508034243 10 214 0.0 3.2 0.00 0.23 0.23 84 1014.9
20260508033740 10 203 0.0 1.6 0.00 0.23 0.23 84 1014.9
20260508033238 10 211 1.6 1.6 0.00 0.23 0.23 84 1015.2
20260508032735 10 261 3.2 9.7 0.00 0.23 0.23 83 1015.2